Orbital Elements at Epoch 2459000.5 (2020-May-31.0) TDB
Reference: JPL 21 (heliocentric ecliptic J2000)
Element | Value | Uncertainty (1-sigma) | Units |
e | .1738457373829952 | 4.7534e-08 | |
a | 2.562705659760583 | 1.6958e-08 | au |
q | 2.11719020464393 | 1.2346e-07 | au |
i | 6.057089953224298 | 4.4832e-06 | deg |
node | 60.24573011601955 | 4.8526e-05 | deg |
peri | 206.9319738264918 | 5.239e-05 | deg |
M | 255.2658608997523 | 2.6413e-05 | deg |
tp | 2459436.445586646578 (2021-Aug-09.94558665) | 0.00011269 | TDB |
period | 1498.464708270057 4.10 | 1.4873e-05 4.072e-08 | d yr |
n | .2402458983606039 | 2.3846e-09 | deg/d |
Q | 3.008221114877237 | 1.9906e-08 | au |
|
| | Orbit Determination Parameters
Additional Information
|